TimeCDT,TemperatureF,Dew PointF,Humidity,Sea Level PressureIn,VisibilityMPH,Wind Direction,Wind SpeedMPH,Gust SpeedMPH,PrecipitationIn,Events,Conditions,WindDirDegrees,DateUTC
12:53 AM,84.9,66.9,55,29.78,10.0,SSW,18.4,23.0,N/A,,Clear,210,2013-07-19 05:53:00
1:53 AM,82.9,66.9,58,29.76,10.0,SSW,13.8,21.9,N/A,,Clear,210,2013-07-19 06:53:00
2:53 AM,82.0,66.9,60,29.74,10.0,SSW,15.0,-,N/A,,Clear,210,2013-07-19 07:53:00
3:53 AM,82.9,66.9,58,29.71,10.0,SSW,15.0,-,N/A,,Clear,210,2013-07-19 08:53:00
4:53 AM,84.0,66.0,55,29.70,10.0,SW,16.1,27.6,N/A,,Mostly Cloudy,230,2013-07-19 09:53:00
5:53 AM,82.9,66.9,58,29.73,10.0,WSW,10.4,-,N/A,,Scattered Clouds,240,2013-07-19 10:53:00
6:53 AM,75.9,68.0,76,29.76,9.0,NW,8.1,-,0.00,Rain,Rain,320,2013-07-19 11:53:00
7:53 AM,75.9,70.0,82,29.76,10.0,SSW,10.4,-,0.02,,Clear,210,2013-07-19 12:53:00
8:53 AM,80.1,70.0,71,29.76,10.0,SW,9.2,-,N/A,,Clear,220,2013-07-19 13:53:00
9:53 AM,84.0,70.0,63,29.75,10.0,SW,11.5,-,N/A,,Clear,220,2013-07-19 14:53:00
10:53 AM,88.0,70.0,55,29.74,10.0,SW,11.5,-,N/A,,Clear,230,2013-07-19 15:53:00
11:53 AM,91.0,70.0,50,29.73,10.0,WSW,10.4,-,N/A,,Clear,250,2013-07-19 16:53:00
12:53 PM,95.0,63.0,34,29.73,10.0,WNW,13.8,-,N/A,,Scattered Clouds,300,2013-07-19 17:53:00
1:53 PM,93.0,66.0,41,29.74,10.0,WNW,12.7,-,N/A,,Partly Cloudy,300,2013-07-19 18:53:00
2:53 PM,91.0,64.0,41,29.74,10.0,NW,13.8,23.0,N/A,,Clear,320,2013-07-19 19:53:00
3:53 PM,91.0,62.1,38,29.75,10.0,WNW,15.0,-,N/A,,Clear,300,2013-07-19 20:53:00
4:53 PM,88.0,63.0,43,29.75,10.0,NW,13.8,21.9,N/A,,Clear,310,2013-07-19 21:53:00
5:53 PM,88.0,63.0,43,29.75,10.0,NW,15.0,-,N/A,,Clear,310,2013-07-19 22:53:00
6:53 PM,86.0,61.0,43,29.76,10.0,WNW,12.7,18.4,N/A,,Clear,300,2013-07-19 23:53:00
7:53 PM,82.9,61.0,47,29.77,10.0,WNW,13.8,18.4,N/A,,Clear,300,2013-07-20 00:53:00
8:53 PM,79.0,61.0,54,29.79,10.0,NNW,8.1,-,N/A,,Clear,340,2013-07-20 01:53:00
9:53 PM,73.9,60.1,62,29.81,10.0,NNW,5.8,-,N/A,,Clear,330,2013-07-20 02:53:00
10:53 PM,73.0,61.0,66,29.82,10.0,Calm,Calm,-,N/A,,Clear,0,2013-07-20 03:53:00
11:53 PM,69.1,61.0,75,29.84,10.0,Calm,Calm,-,N/A,,Clear,0,2013-07-20 04:53:00